Location: Trois-Rivi�res
(46.3500°N, 72.5500°W)
Time: 03:26:44
(UTC-05:00)

Envisat - Pass Details

Date: 10 October 2017
Orbit: 764 x 766 km, 98.2° (Epoch: 11 December)

Event Time Altitude Azimuth Distance (km) Brightness Sun altitude
Exits shadow 21:07:42 43° 240° (WSW) 1,068 3.9 -30.5°
Maximum altitude 21:08:19 45° 262° (W) 1,036 3.9 -30.6°
Drops below altitude 10° 21:13:13 10° 335° (NNW) 2,315 6.0 -31.3°
Sets 21:15:38 0° 341° (NNW) 3,247 6.8 -31.7°
